London, United Kingdom

12:09 PM BST on April 29, 2017 (GMT +0100)
Heathrow

Weather History for EGLL - November, 2014

Change the Weather History Date:

Thursday, November 6, 2014

  Actual Average Record
Temperature  
Mean Temperature 42 °F -  
Max Temperature 53 °F 49 °F 64 °F (2003)
Min Temperature 32 °F 38 °F 32 °F (2012)
Degree Days  
Heating Degree Days 22    
Moisture  
Dew Point 40 °F    
Average Humidity 82    
Maximum Humidity 100    
Minimum Humidity 53    
Precipitation  
Precipitation 0.01 in - - ()
Sea Level Pressure  
Sea Level Pressure 29.72 in    
Wind  
Wind Speed 6 mph ()    
Max Wind Speed 18 mph    
Max Gust Speed -    
Visibility 6.4 miles    
Events Fog , Rain    
Averages and records for this station are not official NWS values.
T = Trace of Precipitation, MM = Missing Value Source: Averaged Metar Reports

Daily Weather History Graph

Daily Weather History Graph

Search for Another Location

Airport or City:

Trip Planner

Search our weather history database for the weather conditions in past years. The results will help you decide how hot, cold, wet, or windy it might be!

Date:

Astronomy

Nov. 06, 2014 Rise Set
Actual Time 7:03 AM GMT 4:26 PM GMT
Civil Twilight 6:27 AM GMT 5:02 PM GMT
Nautical Twilight 5:48 AM GMT 5:41 PM GMT
Astronomical Twilight 5:09 AM GMT 6:20 PM GMT
Moon 4:27 PM GMT (11/6) 6:12 AM GMT (11/6)
Length of Visible Light 10h 34m
Length of Day
9h 22m
Full, 100% of the Moon is Illuminated
Nov 6
Full
Nov 6
Full
Nov 14
Last Quarter
Nov 22
New
Nov 29
First Quarter

Hourly Weather History & Observations

Time (GMT) Temp. Windchill Dew Point Humidity Pressure Visibility Wind Dir Wind Speed Gust Speed Precip Events Conditions
12:00 AM 38 °F - 35 °F 86% 29.83 in 3 mi WNW 2.3 mph - -   Light Haze
12:20 AM 37.4 °F 33.8 °F 35.6 °F 93% 29.83 in 4.3 mi West 4.6 mph - N/A   Unknown
12:50 AM 37.4 °F 33.8 °F 35.6 °F 93% 29.83 in 4.3 mi West 4.6 mph - N/A   Unknown
1:00 AM 36 °F - 34 °F 88% 29.84 in 5 mi West 4.6 mph - -   Light Haze
1:20 AM 35.6 °F - 33.8 °F 93% 29.83 in 4.3 mi Calm Calm - N/A   Unknown
1:50 AM 37.4 °F 34.9 °F 35.6 °F 93% 29.83 in 3.7 mi WNW 3.5 mph - N/A   Unknown
2:00 AM 36 °F - 34 °F 91% 29.84 in 4 mi WNW 3.5 mph - -   Light Haze
2:20 AM 35.6 °F - 33.8 °F 93% 29.83 in - NW 2.3 mph - N/A   Mist
2:50 AM 33.8 °F - 33.8 °F 100% 29.83 in 2.8 mi Calm Calm - N/A   Mist
3:00 AM 35 °F - 33 °F 90% 29.84 in 3 mi WSW 1.2 mph - -   Light Haze
3:20 AM 35.6 °F - 35.6 °F 100% 29.83 in 2.2 mi Calm Calm - N/A   Mist
3:50 AM 35.6 °F - 33.8 °F 93% 29.83 in 0.9 mi Variable 2.3 mph - N/A   Partly Cloudy
4:00 AM 35 °F - 34 °F 96% 29.84 in 1 mi West 3.5 mph - -   Mist
4:20 AM 35.6 °F - 35.6 °F 100% 29.83 in 2.8 mi Calm Calm - N/A Fog Partly Cloudy
4:50 AM 33.8 °F 30.8 °F 33.8 °F 100% 29.83 in 2.8 mi South 3.5 mph - N/A Fog Partly Cloudy
5:00 AM 34 °F - 32 °F 91% 29.83 in 2 mi SW 3.5 mph - -   Mist
5:20 AM 35.6 °F 32.8 °F 33.8 °F 93% 29.83 in 2.8 mi ESE 3.5 mph - N/A Fog Patches of Fog
5:50 AM 33.8 °F - 33.8 °F 100% 29.83 in 3.1 mi SE 2.3 mph - N/A Fog Partly Cloudy
6:00 AM 33 °F - 32 °F 94% 29.83 in 2 mi SE 2.3 mph - - Fog Fog
6:20 AM 33.8 °F 30.8 °F 33.8 °F 100% 29.83 in 3.7 mi Variable 3.5 mph - N/A Fog Patches of Fog
6:50 AM 33.8 °F 30.8 °F 32.0 °F 93% 29.83 in 2.5 mi Variable 3.5 mph - N/A Fog Patches of Fog
7:00 AM 34 °F - 34 °F 98% 29.84 in 3 mi ENE 1.2 mph - -   Mist
7:20 AM 33.8 °F 30.8 °F 32.0 °F 93% 29.83 in 2.8 mi Variable 3.5 mph - N/A Fog Patches of Fog
7:50 AM 33.8 °F 30.8 °F 32.0 °F 93% 29.83 in 3.1 mi Variable 3.5 mph - N/A Fog Patches of Fog
8:00 AM 35 °F - 34 °F 94% 29.84 in 3 mi NNW 1.2 mph - -   Mist
8:20 AM 35.6 °F 32.8 °F 33.8 °F 93% 29.83 in 3.1 mi Variable 3.5 mph - N/A Fog Patches of Fog
8:50 AM 39.2 °F 37.0 °F 37.4 °F 93% 29.83 in 4.3 mi Variable 3.5 mph - N/A Fog Patches of Fog
9:00 AM 39 °F - 36 °F 86% 29.82 in 6 mi ESE 3.5 mph - -   Light Haze
9:20 AM 42.8 °F 40.1 °F 37.4 °F 81% 29.80 in 5.0 mi SE 4.6 mph - N/A Fog Shallow Fog
9:50 AM 44.6 °F 40.2 °F 39.2 °F 81% 29.80 in - SSE 8.1 mph - N/A   Clear
10:00 AM 45 °F - 39 °F 72% 29.80 in 7 mi SE 9.2 mph - -  
10:20 AM 48.2 °F - 41.0 °F 76% 29.80 in - SSE 8.1 mph - N/A   Clear
10:50 AM 50.0 °F - 41.0 °F 71% 29.77 in - SSE 10.4 mph - N/A   Clear
11:00 AM 51 °F - 41 °F 60% 29.78 in 16 mi SSE 9.2 mph - -  
11:20 AM 51.8 °F - 42.8 °F 71% 29.77 in - SSE 11.5 mph - N/A   Clear
11:50 AM 53.6 °F - 42.8 °F 67% 29.74 in - South 12.7 mph - N/A   Clear
12:00 PM 53 °F - 42 °F 57% 29.75 in 16 mi SSE 12.7 mph - -   Mostly Cloudy
12:20 PM 51.8 °F - 42.8 °F 71% 29.74 in 6.2 mi South 11.5 mph - N/A   Partly Cloudy
12:50 PM 53.6 °F - 44.6 °F 72% 29.74 in 6.2 mi South 11.5 mph - N/A   Partly Cloudy
1:00 PM 53 °F - 44 °F 61% 29.73 in 15 mi South 11.5 mph - - Fog Fog
1:20 PM 53.6 °F - 44.6 °F 72% 29.71 in 6.2 mi South 15.0 mph - N/A   Partly Cloudy
1:50 PM 53.6 °F - 44.6 °F 72% 29.71 in 6.2 mi South 12.7 mph - N/A   Partly Cloudy
2:00 PM 53 °F - 43 °F 59% 29.71 in 22 mi South 12.7 mph - -   Scattered Clouds
2:20 PM 53.6 °F - 42.8 °F 67% 29.71 in 6.2 mi South 16.1 mph - N/A   Partly Cloudy
2:50 PM 53.6 °F - 42.8 °F 67% 29.68 in 6.2 mi South 13.8 mph - N/A   Partly Cloudy
3:00 PM 53 °F - 41 °F 53% 29.70 in 19 mi South 16.1 mph - -   Mostly Cloudy
3:20 PM 51.8 °F - 41.0 °F 67% 29.68 in 6.2 mi South 12.7 mph - N/A   Partly Cloudy
3:50 PM 51.8 °F - 42.8 °F 71% 29.65 in - South 13.8 mph - N/A   Clear
4:00 PM 52 °F - 41 °F 57% 29.67 in 17 mi SSE 13.8 mph - -   Overcast
4:20 PM 51.8 °F - 42.8 °F 71% 29.65 in - South 12.7 mph - N/A   Clear
4:50 PM 51.8 °F - 42.8 °F 71% 29.65 in - South 12.7 mph - N/A   Clear
5:00 PM 51 °F - 42 °F 61% 29.65 in 17 mi SSE 13.8 mph - - Rain Rain
5:20 PM 51.8 °F - 42.8 °F 71% 29.62 in 6.2 mi SSE 13.8 mph - N/A Rain Light Rain
5:50 PM 51.8 °F - 44.6 °F 76% 29.62 in 6.2 mi SSE 12.7 mph - N/A Rain Light Rain
6:00 PM 51 °F - 44 °F 71% 29.63 in 12 mi SSE 12.7 mph - - Rain Light Rain Showers
6:20 PM 51.8 °F - 44.6 °F 76% 29.62 in 6.2 mi South 13.8 mph - N/A   Partly Cloudy
6:50 PM 51.8 °F - 44.6 °F 76% 29.59 in 6.2 mi SSE 13.8 mph - N/A   Mostly Cloudy
7:00 PM 52 °F - 44 °F 67% 29.61 in 17 mi SSE 13.8 mph - - Rain Rain
7:20 PM 51.8 °F - 44.6 °F 76% 29.59 in 6.2 mi South 12.7 mph - N/A   Scattered Clouds
7:50 PM 53.6 °F - 46.4 °F 77% 29.56 in 6.2 mi South 12.7 mph - N/A   Scattered Clouds
8:00 PM 52 °F - 45 °F 69% 29.57 in 19 mi SSE 17.3 mph - -   Scattered Clouds
8:20 PM 51.8 °F - 46.4 °F 82% 29.56 in 6.2 mi South 15.0 mph - N/A   Mostly Cloudy
8:50 PM 51.8 °F - 48.2 °F 88% 29.53 in 5.0 mi South 17.3 mph - N/A   Mostly Cloudy
9:00 PM 52 °F - 47 °F 79% 29.55 in 9 mi SSE 18.4 mph - -   Partly Cloudy
9:20 PM 51.8 °F - 48.2 °F 88% 29.53 in 4.3 mi SSE 15.0 mph - N/A Rain Light Rain
9:50 PM 50.0 °F - 48.2 °F 94% 29.50 in 5.6 mi SSE 12.7 mph - N/A Rain Light Rain
10:00 PM 51 °F - 49 °F 88% 29.51 in 10 mi SSE 15.0 mph - - Rain Light Rain
10:20 PM 51.8 °F - 50.0 °F 94% 29.50 in 4.3 mi SSE 12.7 mph - N/A Rain Light Rain
10:50 PM 51.8 °F - 50.0 °F 94% 29.47 in 6.2 mi SSE 15.0 mph - N/A   Mostly Cloudy
11:00 PM 52 °F - 49 °F 87% 29.47 in 13 mi SSE 17.3 mph - - Rain Rain
11:20 PM 51.8 °F - 50.0 °F 94% 29.44 in 3.1 mi SSE 13.8 mph - N/A Rain Rain
11:50 PM 51.8 °F - 50.0 °F 94% 29.42 in 4.3 mi SSE 13.8 mph - N/A Rain Light Rain